Location: Unspecified
(0.0000°N, 0.0000°E)
Time: 01:32:45
(UTC+00:00)

Envisat - Pass Details

Date: 25 June 2022
Orbit: 764 x 765 km, 98.2° (Epoch: 28 June)

Event Time Altitude Azimuth Distance (km) Brightness Sun altitude
Rises 04:41:08 0° 355° (N) 3,212 6.5 -18.6°
Reaches altitude 10° 04:43:37 10° 346° (NNW) 2,289 5.6 -18.1°
Maximum altitude 04:48:08 34° 282° (WNW) 1,246 3.7 -17.0°
Enters shadow 04:49:43 28° 247° (WSW) 1,418 3.8 -16.7°
